Time,TemperatureF,DewpointF,PressureIn,WindDirection,WindDirectionDegrees,WindSpeedMPH,WindSpeedGustMPH,Humidity,HourlyPrecipIn,Conditions,Clouds,dailyrainin,SoftwareType,DateUTC
2013-08-18 00:04:00,67.6,53.3,30.11,NNE,29,0.0,0.0,60,0.00,,,0.00,WeatherDisplay:10.36,2013-08-18 05:04:00,
2013-08-18 00:09:00,67.5,53.5,30.11,NNE,29,0.0,0.0,61,0.00,,,0.00,WeatherDisplay:10.36,2013-08-18 05:09:00,
2013-08-18 00:14:00,67.5,53.5,30.11,NNE,29,0.0,0.0,61,0.00,,,0.00,WeatherDisplay:10.36,2013-08-18 05:14:00,
2013-08-18 00:19:00,67.5,53.5,30.11,NNE,29,0.0,0.0,61,0.00,,,0.00,WeatherDisplay:10.36,2013-08-18 05:19:00,
2013-08-18 00:24:00,67.3,53.8,30.11,NNE,29,0.0,0.0,62,0.00,,,0.00,WeatherDisplay:10.36,2013-08-18 05:24:00,
2013-08-18 00:29:00,67.1,53.6,30.11,NNE,29,0.0,0.0,62,0.00,,,0.00,WeatherDisplay:10.36,2013-08-18 05:29:00,
2013-08-18 00:34:00,67.1,54.1,30.11,NNE,29,0.0,0.0,63,0.00,,,0.00,WeatherDisplay:10.36,2013-08-18 05:34:00,
2013-08-18 00:39:00,66.9,53.9,30.11,NNE,29,0.0,0.0,63,0.00,,,0.00,WeatherDisplay:10.36,2013-08-18 05:39:00,
2013-08-18 00:44:00,66.9,53.9,30.11,NNE,29,0.0,0.0,63,0.00,,,0.00,WeatherDisplay:10.36,2013-08-18 05:44:00,
2013-08-18 00:49:00,66.7,54.2,30.11,NNE,29,0.0,0.0,64,0.00,,,0.00,WeatherDisplay:10.36,2013-08-18 05:49:00,
2013-08-18 00:54:00,66.7,54.2,30.11,NNE,29,0.0,0.0,64,0.00,,,0.00,WeatherDisplay:10.36,2013-08-18 05:54:00,
2013-08-18 00:59:00,66.6,54.0,30.11,NNE,29,0.0,0.0,64,0.00,,,0.00,WeatherDisplay:10.36,2013-08-18 05:59:00,
2013-08-18 01:04:00,66.4,54.3,30.11,NNE,29,0.0,0.0,65,0.00,,,0.00,WeatherDisplay:10.36,2013-08-18 06:04:00,
2013-08-18 01:09:00,66.4,54.3,30.11,NNE,29,0.0,0.0,65,0.00,,,0.00,WeatherDisplay:10.36,2013-08-18 06:09:00,
2013-08-18 01:14:00,66.2,54.1,30.11,NNE,29,0.0,0.0,65,0.00,,,0.00,WeatherDisplay:10.36,2013-08-18 06:14:00,
2013-08-18 01:19:00,66.2,54.1,30.11,NNE,29,0.0,0.0,65,0.00,,,0.00,WeatherDisplay:10.36,2013-08-18 06:19:00,
2013-08-18 01:24:00,66.2,54.5,30.11,NNE,29,0.0,0.0,66,0.00,,,0.00,WeatherDisplay:10.36,2013-08-18 06:24:00,
2013-08-18 01:29:00,66.0,54.3,30.11,NNE,29,0.0,0.0,66,0.00,,,0.00,WeatherDisplay:10.36,2013-08-18 06:29:00,
2013-08-18 01:34:00,66.0,54.3,30.11,NNE,29,0.0,0.0,66,0.00,,,0.00,WeatherDisplay:10.36,2013-08-18 06:34:00,
2013-08-18 01:39:00,65.8,54.6,30.11,NNE,29,0.0,0.0,67,0.00,,,0.00,WeatherDisplay:10.36,2013-08-18 06:39:00,
2013-08-18 01:44:00,65.7,54.4,30.11,NNE,29,0.0,0.0,67,0.00,,,0.00,WeatherDisplay:10.36,2013-08-18 06:44:00,
2013-08-18 01:49:00,65.5,54.2,30.11,NNE,29,0.0,0.0,67,0.00,,,0.00,WeatherDisplay:10.36,2013-08-18 06:49:00,
2013-08-18 01:54:00,65.3,54.1,30.11,NNE,29,0.0,0.0,67,0.00,,,0.00,WeatherDisplay:10.36,2013-08-18 06:54:00,
2013-08-18 01:59:00,65.3,54.5,30.11,NNE,29,0.0,0.0,68,0.00,,,0.00,WeatherDisplay:10.36,2013-08-18 06:59:00,
2013-08-18 02:04:00,65.1,54.3,30.11,NNE,29,0.0,0.0,68,0.00,,,0.00,WeatherDisplay:10.36,2013-08-18 07:04:00,
2013-08-18 02:09:00,65.1,54.3,30.11,NNE,29,0.0,0.0,68,0.00,,,0.00,WeatherDisplay:10.36,2013-08-18 07:09:00,
2013-08-18 02:14:00,65.1,54.3,30.11,NNE,29,0.0,0.0,68,0.00,,,0.00,WeatherDisplay:10.36,2013-08-18 07:14:00,
2013-08-18 02:19:00,65.1,54.7,30.11,NNE,29,0.0,0.0,69,0.00,,,0.00,WeatherDisplay:10.36,2013-08-18 07:19:00,
2013-08-18 02:24:00,65.1,54.7,30.11,NNE,29,0.0,0.0,69,0.00,,,0.00,WeatherDisplay:10.36,2013-08-18 07:24:00,
2013-08-18 02:29:00,64.9,54.5,30.11,NNE,29,0.0,0.0,69,0.00,,,0.00,WeatherDisplay:10.36,2013-08-18 07:29:00,
2013-08-18 02:34:00,64.8,54.3,30.11,NNE,29,0.0,0.0,69,0.00,,,0.00,WeatherDisplay:10.36,2013-08-18 07:34:00,
2013-08-18 02:39:00,64.8,54.7,30.11,NNE,29,0.0,0.0,70,0.00,,,0.00,WeatherDisplay:10.36,2013-08-18 07:39:00,
2013-08-18 02:44:00,64.6,54.6,30.11,NNE,29,0.0,0.0,70,0.00,,,0.00,WeatherDisplay:10.36,2013-08-18 07:44:00,
2013-08-18 02:49:00,64.4,54.4,30.11,NNE,29,0.0,0.0,70,0.00,,,0.00,WeatherDisplay:10.36,2013-08-18 07:49:00,
2013-08-18 02:54:00,64.4,54.8,30.11,NNE,29,0.0,0.0,71,0.00,,,0.00,WeatherDisplay:10.36,2013-08-18 07:54:00,
2013-08-18 02:59:00,64.2,54.6,30.11,NNE,29,0.0,0.0,71,0.00,,,0.00,WeatherDisplay:10.36,2013-08-18 07:59:00,
2013-08-18 03:04:00,64.0,54.4,30.11,NNE,29,0.0,0.0,71,0.00,,,0.00,WeatherDisplay:10.36,2013-08-18 08:04:00,
2013-08-18 03:09:00,64.0,54.4,30.11,NNE,29,0.0,0.0,71,0.00,,,0.00,WeatherDisplay:10.36,2013-08-18 08:09:00,
2013-08-18 03:14:00,63.9,54.7,30.11,NNE,29,0.0,0.0,72,0.00,,,0.00,WeatherDisplay:10.36,2013-08-18 08:14:00,
2013-08-18 03:19:00,63.9,54.7,30.11,NNE,29,0.0,0.0,72,0.00,,,0.00,WeatherDisplay:10.36,2013-08-18 08:19:00,
2013-08-18 03:24:00,63.9,54.7,30.11,NNE,29,0.0,0.0,72,0.00,,,0.00,WeatherDisplay:10.36,2013-08-18 08:24:00,
2013-08-18 03:29:00,63.7,54.5,30.11,NNE,29,0.0,0.0,72,0.00,,,0.00,WeatherDisplay:10.36,2013-08-18 08:29:00,
2013-08-18 03:34:00,63.7,54.5,30.11,NNE,29,0.0,0.0,72,0.00,,,0.00,WeatherDisplay:10.36,2013-08-18 08:34:00,
2013-08-18 03:39:00,63.5,54.7,30.11,NNE,29,0.0,0.0,73,0.00,,,0.00,WeatherDisplay:10.36,2013-08-18 08:39:00,
2013-08-18 03:44:00,63.5,54.7,30.11,NNE,29,0.0,0.0,73,0.00,,,0.00,WeatherDisplay:10.36,2013-08-18 08:44:00,
2013-08-18 03:49:00,63.5,54.7,30.11,NNE,29,0.0,0.0,73,0.00,,,0.00,WeatherDisplay:10.36,2013-08-18 08:49:00,
2013-08-18 03:54:00,63.3,54.5,30.11,NNE,29,0.0,0.0,73,0.00,,,0.00,WeatherDisplay:10.36,2013-08-18 08:54:00,
2013-08-18 03:59:00,63.1,54.7,30.11,NNE,29,0.0,0.0,74,0.00,,,0.00,WeatherDisplay:10.36,2013-08-18 08:59:00,
2013-08-18 04:04:00,63.1,54.7,30.11,NNE,29,0.0,0.0,74,0.00,,,0.00,WeatherDisplay:10.36,2013-08-18 09:04:00,
2013-08-18 04:09:00,63.1,54.7,30.11,NNE,29,0.0,0.0,74,0.00,,,0.00,WeatherDisplay:10.36,2013-08-18 09:09:00,
2013-08-18 04:14:00,63.0,54.9,30.11,NNE,29,0.0,0.0,75,0.00,,,0.00,WeatherDisplay:10.36,2013-08-18 09:14:00,
2013-08-18 04:19:00,63.0,54.9,30.11,NNE,29,0.0,0.0,75,0.00,,,0.00,WeatherDisplay:10.36,2013-08-18 09:19:00,
2013-08-18 04:24:00,63.0,54.9,30.11,NNE,29,0.0,0.0,75,0.00,,,0.00,WeatherDisplay:10.36,2013-08-18 09:24:00,
2013-08-18 04:29:00,62.8,54.7,30.11,NNE,29,0.0,0.0,75,0.00,,,0.00,WeatherDisplay:10.36,2013-08-18 09:29:00,
2013-08-18 04:34:00,62.8,54.7,30.11,NNE,29,0.0,0.0,75,0.00,,,0.00,WeatherDisplay:10.36,2013-08-18 09:34:00,
2013-08-18 04:39:00,62.6,54.6,30.11,NNE,29,0.0,0.0,75,0.00,,,0.00,WeatherDisplay:10.36,2013-08-18 09:39:00,
2013-08-18 04:44:00,62.6,54.6,30.11,NNE,29,0.0,0.0,75,0.00,,,0.00,WeatherDisplay:10.36,2013-08-18 09:44:00,
2013-08-18 04:49:00,62.4,54.8,30.11,NNE,29,0.0,0.0,76,0.00,,,0.00,WeatherDisplay:10.36,2013-08-18 09:49:00,
2013-08-18 04:54:00,62.4,54.8,30.11,NNE,29,0.0,0.0,76,0.00,,,0.00,WeatherDisplay:10.36,2013-08-18 09:54:00,
2013-08-18 04:59:00,62.2,54.6,30.11,NNE,29,0.0,0.0,76,0.00,,,0.00,WeatherDisplay:10.36,2013-08-18 09:59:00,
2013-08-18 05:04:00,62.2,54.6,30.11,NNE,29,0.0,0.0,76,0.00,,,0.00,WeatherDisplay:10.36,2013-08-18 10:04:00,
2013-08-18 05:08:00,62.1,54.4,30.11,NNE,29,0.0,0.0,76,0.00,,,0.00,WeatherDisplay:10.36,2013-08-18 10:08:00,
2013-08-18 05:09:00,62.2,54.6,30.11,NNE,29,0.0,0.0,76,0.00,,,0.00,WeatherDisplay:10.36,2013-08-18 10:09:00,
2013-08-18 05:14:00,62.1,54.4,30.11,NNE,29,0.0,0.0,76,0.00,,,0.00,WeatherDisplay:10.36,2013-08-18 10:14:00,
2013-08-18 05:23:00,62.1,54.8,30.11,NNE,29,0.0,0.0,77,0.00,,,0.00,WeatherDisplay:10.36,2013-08-18 10:23:00,
2013-08-18 05:28:00,61.9,54.6,30.11,NNE,29,0.0,0.0,77,0.00,,,0.00,WeatherDisplay:10.36,2013-08-18 10:28:00,
2013-08-18 05:33:00,61.7,54.4,30.14,NNE,29,0.0,0.0,77,0.00,,,0.00,WeatherDisplay:10.36,2013-08-18 10:33:00,
2013-08-18 05:39:00,61.5,54.2,30.14,NNE,29,0.0,0.0,77,0.00,,,0.00,WeatherDisplay:10.36,2013-08-18 10:39:00,
2013-08-18 05:44:00,61.5,54.6,30.14,NNE,29,0.0,0.0,78,0.00,,,0.00,WeatherDisplay:10.36,2013-08-18 10:44:00,
2013-08-18 05:49:00,61.5,54.6,30.14,NNE,29,0.0,0.0,78,0.00,,,0.00,WeatherDisplay:10.36,2013-08-18 10:49:00,
2013-08-18 05:54:00,61.5,54.6,30.14,NNE,29,0.0,0.0,78,0.00,,,0.00,WeatherDisplay:10.36,2013-08-18 10:54:00,
2013-08-18 06:00:00,61.3,54.4,30.14,NNE,29,0.0,0.0,78,0.00,,,0.00,WeatherDisplay:10.36,2013-08-18 11:00:00,
2013-08-18 06:05:00,61.3,54.8,30.14,NNE,29,0.0,0.0,79,0.00,,,0.00,WeatherDisplay:10.36,2013-08-18 11:05:00,
2013-08-18 06:10:00,61.3,54.8,30.14,NNE,29,0.0,0.0,79,0.00,,,0.00,WeatherDisplay:10.36,2013-08-18 11:10:00,
2013-08-18 06:15:00,61.3,54.8,30.14,NNE,29,0.0,0.0,79,0.00,,,0.00,WeatherDisplay:10.36,2013-08-18 11:15:00,
2013-08-18 06:20:00,61.3,54.8,30.14,NNE,29,0.0,0.0,79,0.00,,,0.00,WeatherDisplay:10.36,2013-08-18 11:20:00,
2013-08-18 06:25:00,61.2,54.6,30.14,NNE,29,0.0,0.0,79,0.00,,,0.00,WeatherDisplay:10.36,2013-08-18 11:25:00,
2013-08-18 06:30:00,61.2,54.6,30.14,NNE,29,0.0,0.0,79,0.00,,,0.00,WeatherDisplay:10.36,2013-08-18 11:30:00,
2013-08-18 06:35:00,61.2,54.6,30.14,NNE,29,0.0,0.0,79,0.00,,,0.00,WeatherDisplay:10.36,2013-08-18 11:35:00,
2013-08-18 06:40:00,61.2,54.6,30.14,NNE,29,0.0,0.0,79,0.00,,,0.00,WeatherDisplay:10.36,2013-08-18 11:40:00,
2013-08-18 06:45:00,61.2,54.9,30.14,NNE,29,0.0,0.0,80,0.00,,,0.00,WeatherDisplay:10.36,2013-08-18 11:45:00,
2013-08-18 06:50:00,61.3,55.1,30.14,NNE,29,0.0,0.0,80,0.00,,,0.00,WeatherDisplay:10.36,2013-08-18 11:50:00,
2013-08-18 06:55:00,61.3,55.1,30.14,NNE,29,0.0,0.0,80,0.00,,,0.00,WeatherDisplay:10.36,2013-08-18 11:55:00,
2013-08-18 07:00:00,61.3,55.1,30.14,NNE,29,0.0,0.0,80,0.00,,,0.00,WeatherDisplay:10.36,2013-08-18 12:00:00,
2013-08-18 07:05:00,61.3,55.1,30.14,NNE,29,0.0,0.0,80,0.00,,,0.00,WeatherDisplay:10.36,2013-08-18 12:05:00,
2013-08-18 07:10:00,61.3,55.1,30.14,NNE,29,0.0,0.0,80,0.00,,,0.00,WeatherDisplay:10.36,2013-08-18 12:10:00,
2013-08-18 07:16:00,61.3,55.1,30.14,NNE,29,0.0,0.0,80,0.00,,,0.00,WeatherDisplay:10.36,2013-08-18 12:16:00,
2013-08-18 07:21:00,61.3,55.1,30.14,NNE,29,0.0,0.0,80,0.00,,,0.00,WeatherDisplay:10.36,2013-08-18 12:21:00,
2013-08-18 07:26:00,61.5,55.6,30.14,NNE,29,0.0,0.0,81,0.00,,,0.00,WeatherDisplay:10.36,2013-08-18 12:26:00,
2013-08-18 07:31:00,61.7,55.8,30.14,NNE,29,0.0,0.0,81,0.00,,,0.00,WeatherDisplay:10.36,2013-08-18 12:31:00,
2013-08-18 07:37:00,62.1,56.2,30.14,NNE,29,0.0,0.0,81,0.00,,,0.00,WeatherDisplay:10.36,2013-08-18 12:37:00,
2013-08-18 07:42:00,62.2,56.3,30.14,NNE,29,0.0,0.0,81,0.00,,,0.00,WeatherDisplay:10.36,2013-08-18 12:42:00,
2013-08-18 07:47:00,62.6,56.7,30.17,NNE,29,0.0,0.0,81,0.00,,,0.00,WeatherDisplay:10.36,2013-08-18 12:47:00,
2013-08-18 07:52:00,63.1,57.2,30.17,North,351,0.0,0.0,81,0.00,,,0.00,WeatherDisplay:10.36,2013-08-18 12:52:00,
2013-08-18 07:57:00,63.5,57.6,30.17,North,351,0.0,0.0,81,0.00,,,0.00,WeatherDisplay:10.36,2013-08-18 12:57:00,
2013-08-18 08:02:00,64.0,58.1,30.97,North,351,0.0,0.0,81,0.00,,,0.00,WeatherDisplay:10.36,2013-08-18 13:02:00,
2013-08-18 08:07:00,64.8,58.8,30.97,North,351,0.0,0.0,81,0.00,,,0.00,WeatherDisplay:10.36,2013-08-18 13:07:00,
2013-08-18 08:12:00,65.1,59.1,30.97,North,351,0.0,0.0,81,0.00,,,0.00,WeatherDisplay:10.36,2013-08-18 13:12:00,
2013-08-18 08:17:00,65.7,59.3,30.97,North,351,0.0,0.0,80,0.00,,,0.00,WeatherDisplay:10.36,2013-08-18 13:17:00,
2013-08-18 08:22:00,65.8,59.1,30.97,North,351,0.0,0.0,79,0.00,,,0.00,WeatherDisplay:10.36,2013-08-18 13:22:00,
2013-08-18 08:27:00,66.2,59.5,30.97,North,351,0.0,0.0,79,0.00,,,0.00,WeatherDisplay:10.36,2013-08-18 13:27:00,
2013-08-18 08:32:00,66.2,57.3,30.97,SW,231,0.0,0.0,73,0.00,,,0.00,WeatherDisplay:10.36,2013-08-18 13:32:00,
2013-08-18 08:37:00,66.4,56.7,30.97,NE,41,0.0,0.0,71,0.00,,,0.00,WeatherDisplay:10.36,2013-08-18 13:37:00,
2013-08-18 08:42:00,66.6,54.8,30.97,North,351,3.6,3.6,66,0.00,,,0.00,WeatherDisplay:10.36,2013-08-18 13:42:00,
2013-08-18 08:47:00,66.7,55.0,30.17,NE,42,3.1,0.0,66,0.00,,,0.00,WeatherDisplay:10.36,2013-08-18 13:47:00,
2013-08-18 08:52:00,67.1,54.5,30.17,NE,41,0.0,0.0,64,0.00,,,0.00,WeatherDisplay:10.36,2013-08-18 13:52:00,
2013-08-18 08:57:00,67.5,54.4,30.17,NE,34,2.7,2.7,63,0.00,,,0.00,WeatherDisplay:10.36,2013-08-18 13:57:00,
2013-08-18 09:02:00,67.6,54.6,30.17,NE,40,0.0,0.0,63,0.00,,,0.00,WeatherDisplay:10.36,2013-08-18 14:02:00,
2013-08-18 09:07:00,68.0,55.4,30.17,WSW,252,0.0,0.0,64,0.00,,,0.00,WeatherDisplay:10.36,2013-08-18 14:07:00,
2013-08-18 09:12:00,68.0,54.5,30.17,NE,41,4.9,4.9,62,0.00,,,0.00,WeatherDisplay:10.36,2013-08-18 14:12:00,
2013-08-18 09:17:00,68.0,54.9,30.17,NE,41,0.0,0.0,63,0.00,,,0.00,WeatherDisplay:10.36,2013-08-18 14:17:00,
2013-08-18 09:22:00,68.4,55.3,30.17,NE,41,0.0,0.0,63,0.00,,,0.00,WeatherDisplay:10.36,2013-08-18 14:22:00,
2013-08-18 09:27:00,68.5,53.6,30.17,North,351,3.1,0.0,59,0.00,,,0.00,WeatherDisplay:10.36,2013-08-18 14:27:00,
2013-08-18 09:32:00,68.7,54.3,30.97,North,351,0.0,0.0,60,0.00,,,0.00,WeatherDisplay:10.36,2013-08-18 14:32:00,
2013-08-18 09:37:00,68.9,54.0,30.97,North,351,0.0,0.0,59,0.00,,,0.00,WeatherDisplay:10.36,2013-08-18 14:37:00,
2013-08-18 09:42:00,69.1,54.1,30.97,North,351,0.0,0.0,59,0.00,,,0.00,WeatherDisplay:10.36,2013-08-18 14:42:00,
2013-08-18 09:47:00,69.4,54.9,30.17,WSW,254,0.0,0.0,60,0.00,,,0.00,WeatherDisplay:10.36,2013-08-18 14:47:00,
2013-08-18 09:52:00,69.8,54.8,30.17,West,261,0.0,0.0,59,0.00,,,0.00,WeatherDisplay:10.36,2013-08-18 14:52:00,
2013-08-18 09:57:00,70.2,55.2,30.17,West,263,0.0,0.0,59,0.00,,,0.00,WeatherDisplay:10.36,2013-08-18 14:57:00,
2013-08-18 10:02:00,70.5,55.0,30.17,WSW,255,0.0,0.0,58,0.00,,,0.00,WeatherDisplay:10.36,2013-08-18 15:02:00,
2013-08-18 10:07:00,70.9,54.9,30.17,West,263,0.0,0.0,57,0.00,,,0.00,WeatherDisplay:10.36,2013-08-18 15:07:00,
2013-08-18 10:12:00,71.2,54.2,30.17,NE,41,0.0,0.0,55,0.00,,,0.00,WeatherDisplay:10.36,2013-08-18 15:12:00,
2013-08-18 10:17:00,71.6,54.1,30.17,West,263,0.0,0.0,54,0.00,,,0.00,WeatherDisplay:10.36,2013-08-18 15:17:00,
2013-08-18 10:22:00,72.1,54.1,30.17,NNE,30,0.0,0.0,53,0.00,,,0.00,WeatherDisplay:10.36,2013-08-18 15:22:00,
2013-08-18 10:27:00,72.5,53.9,30.17,NE,36,0.0,0.0,52,0.00,,,0.00,WeatherDisplay:10.36,2013-08-18 15:27:00,
2013-08-18 10:32:00,72.9,53.7,30.17,NE,37,0.0,0.0,51,0.00,,,0.00,WeatherDisplay:10.36,2013-08-18 15:32:00,
2013-08-18 10:37:00,73.0,52.2,30.17,North,351,0.0,0.0,48,0.00,,,0.00,WeatherDisplay:10.36,2013-08-18 15:37:00,
2013-08-18 10:42:00,73.0,52.2,30.17,North,351,0.0,0.0,48,0.00,,,0.00,WeatherDisplay:10.36,2013-08-18 15:42:00,
2013-08-18 10:47:00,73.4,51.9,30.17,NNE,30,0.0,0.0,47,0.00,,,0.00,WeatherDisplay:10.36,2013-08-18 15:47:00,
2013-08-18 10:52:00,73.6,51.5,30.17,NE,40,0.0,0.0,46,0.00,,,0.00,WeatherDisplay:10.36,2013-08-18 15:52:00,
2013-08-18 10:57:00,73.9,52.4,30.17,North,351,0.0,0.0,47,0.00,,,0.00,WeatherDisplay:10.36,2013-08-18 15:57:00,
2013-08-18 11:02:00,74.3,52.2,30.17,NE,38,0.0,0.0,46,0.00,,,0.00,WeatherDisplay:10.36,2013-08-18 16:02:00,
2013-08-18 11:07:00,74.5,52.3,30.17,NE,39,0.0,0.0,46,0.00,,,0.00,WeatherDisplay:10.36,2013-08-18 16:07:00,
2013-08-18 11:12:00,74.8,51.5,30.17,NE,37,0.0,0.0,44,0.00,,,0.00,WeatherDisplay:10.36,2013-08-18 16:12:00,
2013-08-18 11:17:00,75.2,51.8,30.17,NE,38,0.0,0.0,44,0.00,,,0.00,WeatherDisplay:10.36,2013-08-18 16:17:00,
2013-08-18 11:22:00,75.6,52.7,30.17,NE,38,0.0,0.0,45,0.00,,,0.00,WeatherDisplay:10.36,2013-08-18 16:22:00,
2013-08-18 11:27:00,75.7,52.9,30.17,North,351,0.0,0.0,45,0.00,,,0.00,WeatherDisplay:10.36,2013-08-18 16:27:00,
2013-08-18 11:32:00,76.1,52.6,30.14,NE,36,0.0,0.0,44,0.00,,,0.00,WeatherDisplay:10.36,2013-08-18 16:32:00,
2013-08-18 11:37:00,76.5,52.9,30.14,NE,39,0.0,0.0,44,0.00,,,0.00,WeatherDisplay:10.36,2013-08-18 16:37:00,
2013-08-18 11:42:00,76.6,53.1,30.14,NE,36,0.0,0.0,44,0.00,,,0.00,WeatherDisplay:10.36,2013-08-18 16:42:00,
2013-08-18 11:47:00,76.8,52.6,30.14,NE,39,0.0,0.0,43,0.00,,,0.00,WeatherDisplay:10.36,2013-08-18 16:47:00,
2013-08-18 11:52:00,77.0,52.1,30.14,NE,41,0.0,0.0,42,0.00,,,0.00,WeatherDisplay:10.36,2013-08-18 16:52:00,
2013-08-18 11:57:00,77.4,52.5,30.14,ENE,62,0.0,0.0,42,0.00,,,0.00,WeatherDisplay:10.36,2013-08-18 16:57:00,
2013-08-18 12:02:00,77.4,52.5,30.14,NE,42,0.0,0.0,42,0.00,,,0.00,WeatherDisplay:10.36,2013-08-18 17:02:00,
2013-08-18 12:07:00,77.5,52.6,30.14,NE,39,0.0,0.0,42,0.00,,,0.00,WeatherDisplay:10.36,2013-08-18 17:07:00,
2013-08-18 12:12:00,77.7,52.8,30.14,NNE,32,0.0,0.0,42,0.00,,,0.00,WeatherDisplay:10.36,2013-08-18 17:12:00,
2013-08-18 12:17:00,78.1,53.1,30.14,NNE,27,0.0,0.0,42,0.00,,,0.00,WeatherDisplay:10.36,2013-08-18 17:17:00,
2013-08-18 12:22:00,78.3,53.3,30.14,NE,35,0.0,0.0,42,0.00,,,0.00,WeatherDisplay:10.36,2013-08-18 17:22:00,
2013-08-18 12:27:00,78.3,52.6,30.14,North,351,0.0,0.0,41,0.00,,,0.00,WeatherDisplay:10.36,2013-08-18 17:27:00,
2013-08-18 12:32:00,78.1,53.1,31.03,NE,40,0.0,0.0,42,0.00,,,0.00,WeatherDisplay:10.36,2013-08-18 17:32:00,
2013-08-18 12:37:00,77.9,52.3,31.03,North,351,0.0,0.0,41,0.00,,,0.00,WeatherDisplay:10.36,2013-08-18 17:37:00,
2013-08-18 12:42:00,77.9,53.0,31.03,NNE,28,0.0,0.0,42,0.00,,,0.00,WeatherDisplay:10.36,2013-08-18 17:42:00,
2013-08-18 12:47:00,78.1,52.5,30.94,North,351,0.0,0.0,41,0.00,,,0.00,WeatherDisplay:10.36,2013-08-18 17:47:00,
2013-08-18 12:52:00,78.4,53.4,30.94,NE,38,0.0,0.0,42,0.00,,,0.00,WeatherDisplay:10.36,2013-08-18 17:52:00,
2013-08-18 12:57:00,78.6,53.6,30.94,NE,38,0.0,0.0,42,0.00,,,0.00,WeatherDisplay:10.36,2013-08-18 17:57:00,
2013-08-18 13:02:00,79.0,52.6,30.14,NNE,32,0.0,0.0,40,0.00,,,0.00,WeatherDisplay:10.36,2013-08-18 18:02:00,
2013-08-18 13:07:00,79.2,53.4,30.14,North,351,0.0,0.0,41,0.00,,,0.00,WeatherDisplay:10.36,2013-08-18 18:07:00,
2013-08-18 13:12:00,79.2,53.4,30.14,NE,39,0.0,0.0,41,0.00,,,0.00,WeatherDisplay:10.36,2013-08-18 18:12:00,
2013-08-18 13:17:00,79.2,52.8,30.62,North,351,0.0,0.0,40,0.00,,,0.00,WeatherDisplay:10.36,2013-08-18 18:17:00,
2013-08-18 13:22:00,79.3,53.6,30.62,NE,39,5.4,5.4,41,0.00,,,0.00,WeatherDisplay:10.36,2013-08-18 18:22:00,
2013-08-18 13:27:00,79.3,52.9,30.62,NNE,28,3.6,0.0,40,0.00,,,0.00,WeatherDisplay:10.36,2013-08-18 18:27:00,
2013-08-18 13:32:00,79.2,52.1,30.11,NNE,32,3.6,3.6,39,0.00,,,0.00,WeatherDisplay:10.36,2013-08-18 18:32:00,
2013-08-18 13:37:00,79.3,52.9,30.11,NE,37,3.1,3.1,40,0.00,,,0.00,WeatherDisplay:10.36,2013-08-18 18:37:00,
2013-08-18 13:42:00,79.7,53.9,30.11,NE,37,3.5,3.5,41,0.00,,,0.00,WeatherDisplay:10.36,2013-08-18 18:42:00,
2013-08-18 13:47:00,79.9,53.4,30.11,NE,36,2.7,0.0,40,0.00,,,0.00,WeatherDisplay:10.36,2013-08-18 18:47:00,
2013-08-18 13:52:00,80.2,53.0,30.11,NNE,29,0.0,0.0,39,0.00,,,0.00,WeatherDisplay:10.36,2013-08-18 18:52:00,
2013-08-18 13:57:00,80.4,52.5,30.11,NE,37,3.6,3.6,38,0.00,,,0.00,WeatherDisplay:10.36,2013-08-18 18:57:00,
2013-08-18 14:02:00,80.6,52.6,30.11,NE,37,5.8,5.8,38,0.00,,,0.00,WeatherDisplay:10.36,2013-08-18 19:02:00,
2013-08-18 14:07:00,80.8,53.5,30.11,NE,37,4.6,4.6,39,0.00,,,0.00,WeatherDisplay:10.36,2013-08-18 19:07:00,
2013-08-18 14:12:00,80.8,51.3,30.11,NNE,33,4.0,4.0,36,0.00,,,0.00,WeatherDisplay:10.36,2013-08-18 19:12:00,
2013-08-18 14:17:00,81.0,52.2,30.11,North,351,4.6,4.6,37,0.00,,,0.00,WeatherDisplay:10.36,2013-08-18 19:17:00,
2013-08-18 14:22:00,81.1,52.4,30.11,NNE,29,3.1,0.0,37,0.00,,,0.00,WeatherDisplay:10.36,2013-08-18 19:22:00,
2013-08-18 14:27:00,81.0,50.7,30.11,NNE,27,0.0,0.0,35,0.00,,,0.00,WeatherDisplay:10.36,2013-08-18 19:27:00,
2013-08-18 14:32:00,81.0,51.5,30.11,NE,36,2.7,0.0,36,0.00,,,0.00,WeatherDisplay:10.36,2013-08-18 19:32:00,
2013-08-18 14:37:00,81.1,50.9,30.11,NNE,27,0.0,0.0,35,0.00,,,0.00,WeatherDisplay:10.36,2013-08-18 19:37:00,
2013-08-18 14:42:00,81.1,50.1,30.11,North,351,4.5,0.0,34,0.00,,,0.00,WeatherDisplay:10.36,2013-08-18 19:42:00,
2013-08-18 14:47:00,81.1,50.1,30.11,NNE,31,4.5,4.5,34,0.00,,,0.00,WeatherDisplay:10.36,2013-08-18 19:47:00,
2013-08-18 14:52:00,81.5,51.2,30.11,NE,37,3.1,3.1,35,0.00,,,0.00,WeatherDisplay:10.36,2013-08-18 19:52:00,
2013-08-18 14:57:00,81.7,50.6,30.11,NE,37,3.5,0.0,34,0.00,,,0.00,WeatherDisplay:10.36,2013-08-18 19:57:00,
2013-08-18 15:02:00,81.7,51.4,30.11,NNE,31,0.0,0.0,35,0.00,,,0.00,WeatherDisplay:10.36,2013-08-18 20:02:00,
2013-08-18 15:07:00,81.7,51.4,30.11,NE,36,3.6,3.6,35,0.00,,,0.00,WeatherDisplay:10.36,2013-08-18 20:07:00,
2013-08-18 15:12:00,81.7,50.6,30.11,West,263,5.8,0.0,34,0.00,,,0.00,WeatherDisplay:10.36,2013-08-18 20:12:00,
2013-08-18 15:17:00,81.9,51.5,30.08,NE,35,4.6,4.6,35,0.00,,,0.00,WeatherDisplay:10.36,2013-08-18 20:17:00,
2013-08-18 15:22:00,81.9,51.5,30.08,NNE,29,4.0,4.5,35,0.00,,,0.00,WeatherDisplay:10.36,2013-08-18 20:22:00,
2013-08-18 15:27:00,81.9,52.3,30.08,NE,34,3.6,0.0,36,0.00,,,0.00,WeatherDisplay:10.36,2013-08-18 20:27:00,
2013-08-18 15:32:00,82.0,51.7,30.08,North,351,4.0,0.0,35,0.00,,,0.00,WeatherDisplay:10.36,2013-08-18 20:32:00,
2013-08-18 15:37:00,82.0,51.7,30.08,NNE,29,0.0,2.7,35,0.00,,,0.00,WeatherDisplay:10.36,2013-08-18 20:37:00,
2013-08-18 15:42:00,82.2,51.1,30.08,NNE,27,4.0,4.0,34,0.00,,,0.00,WeatherDisplay:10.36,2013-08-18 20:42:00,
2013-08-18 15:47:00,81.9,49.9,30.08,NNE,27,3.1,3.6,33,0.00,,,0.00,WeatherDisplay:10.36,2013-08-18 20:47:00,
2013-08-18 15:52:00,81.5,51.2,30.08,NNE,27,3.1,0.0,35,0.00,,,0.00,WeatherDisplay:10.36,2013-08-18 20:52:00,
2013-08-18 15:57:00,81.5,51.2,30.08,NE,36,0.0,0.0,35,0.00,,,0.00,WeatherDisplay:10.36,2013-08-18 20:57:00,
2013-08-18 16:02:00,81.7,51.4,30.08,NE,39,5.8,0.0,35,0.00,,,0.00,WeatherDisplay:10.36,2013-08-18 21:02:00,
2013-08-18 16:07:00,81.9,49.9,30.08,NNE,27,3.6,3.6,33,0.00,,,0.00,WeatherDisplay:10.36,2013-08-18 21:07:00,
2013-08-18 16:12:00,81.9,50.7,30.08,NE,37,5.8,5.8,34,0.00,,,0.00,WeatherDisplay:10.36,2013-08-18 21:12:00,
2013-08-18 16:17:00,81.9,50.7,30.08,NE,38,4.0,4.0,34,0.00,,,0.00,WeatherDisplay:10.36,2013-08-18 21:17:00,
2013-08-18 16:22:00,81.9,50.7,30.08,NE,37,8.3,8.3,34,0.00,,,0.00,WeatherDisplay:10.36,2013-08-18 21:22:00,
2013-08-18 16:27:00,81.7,50.6,30.08,NNE,28,4.9,0.0,34,0.00,,,0.00,WeatherDisplay:10.36,2013-08-18 21:27:00,
2013-08-18 16:32:00,81.7,50.6,30.08,NE,39,4.5,4.5,34,0.00,,,0.00,WeatherDisplay:10.36,2013-08-18 21:32:00,
2013-08-18 16:37:00,81.5,50.4,30.08,NNE,27,0.0,0.0,34,0.00,,,0.00,WeatherDisplay:10.36,2013-08-18 21:37:00,
2013-08-18 16:42:00,81.7,51.4,30.08,NNE,27,3.6,0.0,35,0.00,,,0.00,WeatherDisplay:10.36,2013-08-18 21:42:00,
2013-08-18 16:47:00,81.7,50.6,30.08,NNE,27,3.6,0.0,34,0.00,,,0.00,WeatherDisplay:10.36,2013-08-18 21:47:00,
2013-08-18 16:52:00,81.5,50.4,30.08,NNE,28,3.6,3.6,34,0.00,,,0.00,WeatherDisplay:10.36,2013-08-18 21:52:00,
2013-08-18 16:57:00,81.5,51.2,30.08,NNE,28,3.5,0.0,35,0.00,,,0.00,WeatherDisplay:10.36,2013-08-18 21:57:00,
2013-08-18 17:02:00,81.5,51.2,30.08,NE,37,5.4,5.4,35,0.00,,,0.00,WeatherDisplay:10.36,2013-08-18 22:02:00,
2013-08-18 17:07:00,81.5,52.0,30.08,NNE,29,3.6,3.6,36,0.00,,,0.00,WeatherDisplay:10.36,2013-08-18 22:07:00,
2013-08-18 17:12:00,81.5,51.2,30.08,NNE,31,3.5,3.5,35,0.00,,,0.00,WeatherDisplay:10.36,2013-08-18 22:12:00,
2013-08-18 17:17:00,81.5,51.2,30.08,NNE,33,0.0,2.7,35,0.00,,,0.00,WeatherDisplay:10.36,2013-08-18 22:17:00,
2013-08-18 17:22:00,81.1,51.7,30.08,NE,35,4.5,4.5,36,0.00,,,0.00,WeatherDisplay:10.36,2013-08-18 22:22:00,
2013-08-18 17:27:00,81.0,51.5,30.08,NNE,33,0.0,2.7,36,0.00,,,0.00,WeatherDisplay:10.36,2013-08-18 22:27:00,
2013-08-18 17:32:00,80.8,51.3,30.08,NE,37,0.0,0.0,36,0.00,,,0.00,WeatherDisplay:10.36,2013-08-18 22:32:00,
2013-08-18 17:37:00,80.6,51.9,30.08,NE,37,4.0,4.0,37,0.00,,,0.00,WeatherDisplay:10.36,2013-08-18 22:37:00,
2013-08-18 17:42:00,80.4,52.5,30.08,NE,35,3.1,0.0,38,0.00,,,0.00,WeatherDisplay:10.36,2013-08-18 22:42:00,
2013-08-18 17:47:00,80.4,51.8,30.08,NE,35,4.9,4.9,37,0.00,,,0.00,WeatherDisplay:10.36,2013-08-18 22:47:00,
2013-08-18 17:52:00,80.4,51.8,30.08,NE,36,0.0,0.0,37,0.00,,,0.00,WeatherDisplay:10.36,2013-08-18 22:52:00,
2013-08-18 17:57:00,80.4,51.0,30.08,NNE,28,3.5,0.0,36,0.00,,,0.00,WeatherDisplay:10.36,2013-08-18 22:57:00,
2013-08-18 18:03:00,80.4,51.8,30.08,NE,37,3.5,0.0,37,0.00,,,0.00,WeatherDisplay:10.36,2013-08-18 23:03:00,
2013-08-18 18:08:00,80.4,51.8,30.08,NE,36,2.3,0.0,37,0.00,,,0.00,WeatherDisplay:10.36,2013-08-18 23:08:00,
2013-08-18 18:13:00,80.4,51.8,30.08,NE,38,3.5,3.5,37,0.00,,,0.00,WeatherDisplay:10.36,2013-08-18 23:13:00,
2013-08-18 18:18:00,80.2,51.6,30.08,NE,37,3.5,0.0,37,0.00,,,0.00,WeatherDisplay:10.36,2013-08-18 23:18:00,
2013-08-18 18:23:00,80.1,52.2,30.08,NE,38,0.0,0.0,38,0.00,,,0.00,WeatherDisplay:10.36,2013-08-18 23:23:00,
2013-08-18 18:28:00,80.1,52.2,30.08,NE,38,0.0,0.0,38,0.00,,,0.00,WeatherDisplay:10.36,2013-08-18 23:28:00,
2013-08-18 18:33:00,79.9,51.3,30.06,NE,37,0.0,0.0,37,0.00,,,0.00,WeatherDisplay:10.36,2013-08-18 23:33:00,
2013-08-18 18:39:00,79.9,52.0,30.06,NE,37,3.5,0.0,38,0.00,,,0.00,WeatherDisplay:10.36,2013-08-18 23:39:00,
2013-08-18 18:44:00,79.9,52.7,30.06,NE,35,0.0,0.0,39,0.00,,,0.00,WeatherDisplay:10.36,2013-08-18 23:44:00,
2013-08-18 18:49:00,79.7,52.5,30.06,NE,35,0.0,0.0,39,0.00,,,0.00,WeatherDisplay:10.36,2013-08-18 23:49:00,
2013-08-18 18:54:00,79.7,53.2,30.06,NE,36,0.0,0.0,40,0.00,,,0.00,WeatherDisplay:10.36,2013-08-18 23:54:00,
2013-08-18 18:59:00,79.5,53.1,30.06,NE,35,0.0,0.0,40,0.00,,,0.00,WeatherDisplay:10.36,2013-08-18 23:59:00,
2013-08-18 19:04:00,79.5,53.1,30.06,NE,38,4.9,4.9,40,0.00,,,0.00,WeatherDisplay:10.36,2013-08-19 00:04:00,
2013-08-18 19:09:00,79.3,52.9,30.06,NE,38,0.0,0.0,40,0.00,,,0.00,WeatherDisplay:10.36,2013-08-19 00:09:00,
2013-08-18 19:14:00,79.2,52.8,30.06,NE,38,0.0,0.0,40,0.00,,,0.00,WeatherDisplay:10.36,2013-08-19 00:14:00,
2013-08-18 19:19:00,79.0,52.6,30.06,NE,38,0.0,0.0,40,0.00,,,0.00,WeatherDisplay:10.36,2013-08-19 00:19:00,
2013-08-18 19:24:00,79.0,53.3,30.06,NE,38,0.0,0.0,41,0.00,,,0.00,WeatherDisplay:10.36,2013-08-19 00:24:00,
2013-08-18 19:29:00,78.8,53.1,30.06,NE,38,0.0,0.0,41,0.00,,,0.00,WeatherDisplay:10.36,2013-08-19 00:29:00,
2013-08-18 19:34:00,78.6,52.9,30.08,NE,38,0.0,0.0,41,0.00,,,0.00,WeatherDisplay:10.36,2013-08-19 00:34:00,
2013-08-18 19:39:00,78.4,53.4,30.08,NE,37,0.0,0.0,42,0.00,,,0.00,WeatherDisplay:10.36,2013-08-19 00:39:00,
2013-08-18 19:44:00,78.3,53.3,30.08,NE,38,0.0,0.0,42,0.00,,,0.00,WeatherDisplay:10.36,2013-08-19 00:44:00,
2013-08-18 19:49:00,78.1,53.1,30.08,NE,38,0.0,0.0,42,0.00,,,0.00,WeatherDisplay:10.36,2013-08-19 00:49:00,
2013-08-18 19:54:00,77.7,53.4,30.08,NE,38,0.0,0.0,43,0.00,,,0.00,WeatherDisplay:10.36,2013-08-19 00:54:00,
2013-08-18 19:59:00,77.5,53.9,30.08,NE,38,0.0,0.0,44,0.00,,,0.00,WeatherDisplay:10.36,2013-08-19 00:59:00,
2013-08-18 20:04:00,77.4,53.7,30.06,NE,38,0.0,0.0,44,0.00,,,0.00,WeatherDisplay:10.36,2013-08-19 01:04:00,
2013-08-18 20:09:00,77.2,54.2,30.06,NE,38,0.0,0.0,45,0.00,,,0.00,WeatherDisplay:10.36,2013-08-19 01:09:00,
2013-08-18 20:14:00,77.0,54.0,30.06,NE,38,0.0,0.0,45,0.00,,,0.00,WeatherDisplay:10.36,2013-08-19 01:14:00,
2013-08-18 20:19:00,76.8,53.9,30.08,NE,38,0.0,0.0,45,0.00,,,0.00,WeatherDisplay:10.36,2013-08-19 01:19:00,
2013-08-18 20:24:00,76.6,54.3,30.08,NE,38,0.0,0.0,46,0.00,,,0.00,WeatherDisplay:10.36,2013-08-19 01:24:00,
2013-08-18 20:29:00,76.6,54.3,30.08,NE,38,0.0,0.0,46,0.00,,,0.00,WeatherDisplay:10.36,2013-08-19 01:29:00,
2013-08-18 20:34:00,76.5,54.1,30.08,NE,38,0.0,0.0,46,0.00,,,0.00,WeatherDisplay:10.36,2013-08-19 01:34:00,
2013-08-18 20:39:00,76.3,54.6,30.08,NE,38,0.0,0.0,47,0.00,,,0.00,WeatherDisplay:10.36,2013-08-19 01:39:00,
2013-08-18 20:44:00,76.1,54.4,30.08,NE,38,0.0,0.0,47,0.00,,,0.00,WeatherDisplay:10.36,2013-08-19 01:44:00,
2013-08-18 20:49:00,76.1,55.0,30.08,NE,38,0.0,0.0,48,0.00,,,0.00,WeatherDisplay:10.36,2013-08-19 01:49:00,
2013-08-18 20:54:00,75.9,54.8,30.08,NE,38,0.0,0.0,48,0.00,,,0.00,WeatherDisplay:10.36,2013-08-19 01:54:00,
2013-08-18 20:59:00,75.7,54.7,30.08,NE,38,0.0,0.0,48,0.00,,,0.00,WeatherDisplay:10.36,2013-08-19 01:59:00,
2013-08-18 21:04:00,75.6,55.1,30.08,NE,38,0.0,0.0,49,0.00,,,0.00,WeatherDisplay:10.36,2013-08-19 02:04:00,
2013-08-18 21:09:00,75.4,54.9,30.08,NE,38,0.0,0.0,49,0.00,,,0.00,WeatherDisplay:10.36,2013-08-19 02:09:00,
2013-08-18 21:14:00,75.4,54.9,30.08,NE,38,0.0,0.0,49,0.00,,,0.00,WeatherDisplay:10.36,2013-08-19 02:14:00,
2013-08-18 21:19:00,75.2,54.7,30.08,NE,38,0.0,0.0,49,0.00,,,0.00,WeatherDisplay:10.36,2013-08-19 02:19:00,
2013-08-18 21:24:00,75.2,55.3,30.08,NE,38,0.0,0.0,50,0.00,,,0.00,WeatherDisplay:10.36,2013-08-19 02:24:00,
2013-08-18 21:29:00,75.0,55.1,30.08,NE,38,0.0,0.0,50,0.00,,,0.00,WeatherDisplay:10.36,2013-08-19 02:29:00,
2013-08-18 21:35:00,74.8,54.9,30.08,NE,38,0.0,0.0,50,0.00,,,0.00,WeatherDisplay:10.36,2013-08-19 02:35:00,
2013-08-18 21:40:00,74.8,54.9,30.08,NE,38,0.0,0.0,50,0.00,,,0.00,WeatherDisplay:10.36,2013-08-19 02:40:00,
2013-08-18 21:45:00,74.7,55.3,30.08,NE,38,0.0,0.0,51,0.00,,,0.00,WeatherDisplay:10.36,2013-08-19 02:45:00,
2013-08-18 21:50:00,74.7,55.3,30.08,NE,38,0.0,0.0,51,0.00,,,0.00,WeatherDisplay:10.36,2013-08-19 02:50:00,
2013-08-18 21:55:00,74.5,55.2,30.08,NE,38,0.0,0.0,51,0.00,,,0.00,WeatherDisplay:10.36,2013-08-19 02:55:00,
2013-08-18 22:00:00,74.5,55.2,30.08,NE,38,0.0,0.0,51,0.00,,,0.00,WeatherDisplay:10.36,2013-08-19 03:00:00,
2013-08-18 22:05:00,74.3,55.0,30.08,NE,38,0.0,0.0,51,0.00,,,0.00,WeatherDisplay:10.36,2013-08-19 03:05:00,
2013-08-18 22:10:00,74.1,55.4,30.08,NE,38,0.0,0.0,52,0.00,,,0.00,WeatherDisplay:10.36,2013-08-19 03:10:00,
2013-08-18 22:15:00,74.1,55.4,30.08,NE,38,0.0,0.0,52,0.00,,,0.00,WeatherDisplay:10.36,2013-08-19 03:15:00,
2013-08-18 22:20:00,73.9,55.7,30.08,NE,38,0.0,0.0,53,0.00,,,0.00,WeatherDisplay:10.36,2013-08-19 03:20:00,
2013-08-18 22:25:00,73.9,55.7,30.08,NE,38,0.0,0.0,53,0.00,,,0.00,WeatherDisplay:10.36,2013-08-19 03:25:00,
2013-08-18 22:30:00,73.8,55.6,30.08,NE,38,0.0,0.0,53,0.00,,,0.00,WeatherDisplay:10.36,2013-08-19 03:30:00,
2013-08-18 22:35:00,73.8,55.6,30.11,NE,38,0.0,0.0,53,0.00,,,0.00,WeatherDisplay:10.36,2013-08-19 03:35:00,
2013-08-18 22:40:00,73.6,55.4,30.11,NE,38,0.0,0.0,53,0.00,,,0.00,WeatherDisplay:10.36,2013-08-19 03:40:00,
2013-08-18 22:45:00,73.6,55.9,30.11,NE,38,0.0,0.0,54,0.00,,,0.00,WeatherDisplay:10.36,2013-08-19 03:45:00,
2013-08-18 22:50:00,73.4,55.7,30.08,NE,38,0.0,0.0,54,0.00,,,0.00,WeatherDisplay:10.36,2013-08-19 03:50:00,
2013-08-18 22:55:00,73.4,55.7,30.08,NE,38,0.0,0.0,54,0.00,,,0.00,WeatherDisplay:10.36,2013-08-19 03:55:00,
2013-08-18 23:00:00,73.2,55.6,30.08,NE,38,0.0,0.0,54,0.00,,,0.00,WeatherDisplay:10.36,2013-08-19 04:00:00,
2013-08-18 23:01:00,73.2,55.6,30.08,NE,38,0.0,0.0,54,0.00,,,0.00,WeatherDisplay:10.36,2013-08-19 04:01:00,
2013-08-18 23:02:00,73.2,55.6,30.08,NE,38,0.0,0.0,54,0.00,,,0.00,WeatherDisplay:10.36,2013-08-19 04:02:00,
2013-08-18 23:03:00,73.2,56.1,30.08,NE,38,0.0,0.0,55,0.00,,,0.00,WeatherDisplay:10.36,2013-08-19 04:03:00,
2013-08-18 23:08:00,73.0,55.9,30.08,NE,38,0.0,0.0,55,0.00,,,0.00,WeatherDisplay:10.36,2013-08-19 04:08:00,
2013-08-18 23:10:00,73.0,55.9,30.08,NE,38,0.0,0.0,55,0.00,,,0.00,WeatherDisplay:10.36,2013-08-19 04:10:00,
2013-08-18 23:15:00,73.0,55.9,30.08,NE,38,0.0,0.0,55,0.00,,,0.00,WeatherDisplay:10.36,2013-08-19 04:15:00,
2013-08-18 23:20:00,72.9,56.2,30.11,NE,38,0.0,0.0,56,0.00,,,0.00,WeatherDisplay:10.36,2013-08-19 04:20:00,
2013-08-18 23:22:00,72.9,56.2,30.11,NE,38,0.0,0.0,56,0.00,,,0.00,WeatherDisplay:10.36,2013-08-19 04:22:00,
2013-08-18 23:27:00,72.9,56.2,30.11,NE,38,0.0,0.0,56,0.00,,,0.00,WeatherDisplay:10.36,2013-08-19 04:27:00,
2013-08-18 23:32:00,72.7,56.1,30.08,NE,39,0.0,0.0,56,0.00,,,0.00,WeatherDisplay:10.36,2013-08-19 04:32:00,
2013-08-18 23:37:00,72.7,56.1,30.08,NE,38,0.0,0.0,56,0.00,,,0.00,WeatherDisplay:10.36,2013-08-19 04:37:00,
2013-08-18 23:42:00,72.7,56.1,30.08,NE,38,0.0,0.0,56,0.00,,,0.00,WeatherDisplay:10.36,2013-08-19 04:42:00,
2013-08-18 23:47:00,72.7,56.1,30.08,NE,38,0.0,0.0,56,0.00,,,0.00,WeatherDisplay:10.36,2013-08-19 04:47:00,
2013-08-18 23:52:00,72.5,55.9,30.08,NE,38,0.0,0.0,56,0.00,,,0.00,WeatherDisplay:10.36,2013-08-19 04:52:00,
2013-08-18 23:57:00,72.5,56.4,30.08,NE,38,0.0,0.0,57,0.00,,,0.00,WeatherDisplay:10.36,2013-08-19 04:57:00,